Time,TemperatureF,DewpointF,PressureIn,WindDirection,WindDirectionDegrees,WindSpeedMPH,WindSpeedGustMPH,Humidity,HourlyPrecipIn,Conditions,Clouds,dailyrainin,SoftwareType,DateUTC
2013-01-27 00:02:00,79.0,-99.9,30.09,East,99,13.0,17.0,-999,-99.99,,,-99.99,,2013-01-27 04:02:00,
2013-01-27 00:12:00,79.0,-99.9,30.08,East,100,13.0,15.0,-999,-99.99,,,-99.99,,2013-01-27 04:12:00,
2013-01-27 00:22:00,78.0,-99.9,30.09,SE,125,8.0,11.0,-999,-99.99,,,-99.99,,2013-01-27 04:22:00,
2013-01-27 00:32:00,78.0,-99.9,30.09,ESE,114,9.0,12.0,-999,-99.99,,,-99.99,,2013-01-27 04:32:00,
2013-01-27 00:42:00,78.0,-99.9,30.09,SE,129,9.0,11.0,-999,-99.99,,,-99.99,,2013-01-27 04:42:00,
2013-01-27 00:52:00,78.0,-99.9,30.09,ESE,113,11.0,14.0,-999,-99.99,,,-99.99,,2013-01-27 04:52:00,
2013-01-27 01:12:00,77.0,-99.9,30.08,ESE,111,9.0,10.0,-999,-99.99,,,-99.99,,2013-01-27 05:12:00,
2013-01-27 01:22:00,77.0,-99.9,30.08,SE,130,8.0,10.0,-999,-99.99,,,-99.99,,2013-01-27 05:22:00,
2013-01-27 01:32:00,77.0,-99.9,30.08,SE,124,8.0,9.0,-999,-99.99,,,-99.99,,2013-01-27 05:32:00,
2013-01-27 01:42:00,77.0,-99.9,30.08,ESE,112,6.0,9.0,-999,-99.99,,,-99.99,,2013-01-27 05:42:00,
2013-01-27 01:52:00,78.0,-99.9,30.08,SE,124,7.0,8.0,-999,-99.99,,,-99.99,,2013-01-27 05:52:00,
2013-01-27 02:02:00,77.0,-99.9,30.08,SE,127,8.0,9.0,-999,-99.99,,,-99.99,,2013-01-27 06:02:00,
2013-01-27 02:11:00,77.0,-99.9,30.08,SE,124,7.0,9.0,-999,-99.99,,,-99.99,,2013-01-27 06:11:00,
2013-01-27 02:22:00,77.0,-99.9,30.07,ESE,122,7.0,11.0,-999,-99.99,,,-99.99,,2013-01-27 06:22:00,
2013-01-27 02:32:00,77.0,-99.9,30.07,ESE,118,7.0,9.0,-999,-99.99,,,-99.99,,2013-01-27 06:32:00,
2013-01-27 02:42:00,76.0,-99.9,30.07,ESE,117,7.0,8.0,-999,-99.99,,,-99.99,,2013-01-27 06:42:00,
2013-01-27 02:52:00,76.0,-99.9,30.07,ESE,107,7.0,8.0,-999,-99.99,,,-99.99,,2013-01-27 06:52:00,
2013-01-27 03:01:00,77.0,-99.9,30.06,ESE,111,7.0,9.0,-999,-99.99,,,-99.99,,2013-01-27 07:01:00,
2013-01-27 03:14:00,77.0,-99.9,30.06,ESE,108,6.0,8.0,-999,-99.99,,,-99.99,,2013-01-27 07:14:00,
2013-01-27 03:22:00,77.0,-99.9,30.06,ESE,120,6.0,8.0,-999,-99.99,,,-99.99,,2013-01-27 07:22:00,
2013-01-27 03:32:00,77.0,-99.9,30.06,SE,130,6.0,7.0,-999,-99.99,,,-99.99,,2013-01-27 07:32:00,
2013-01-27 03:42:00,77.0,-99.9,30.06,SE,126,6.0,8.0,-999,-99.99,,,-99.99,,2013-01-27 07:42:00,
2013-01-27 03:52:00,76.0,-99.9,30.06,ESE,122,6.0,7.0,-999,-99.99,,,-99.99,,2013-01-27 07:52:00,
2013-01-27 04:02:00,76.0,-99.9,30.06,SE,125,5.0,6.0,-999,-99.99,,,-99.99,,2013-01-27 08:02:00,
2013-01-27 04:12:00,76.0,-99.9,30.06,SE,128,6.0,7.0,-999,-99.99,,,-99.99,,2013-01-27 08:12:00,
2013-01-27 04:22:00,76.0,-99.9,30.06,ESE,114,6.0,7.0,-999,-99.99,,,-99.99,,2013-01-27 08:22:00,
2013-01-27 04:32:00,76.0,-99.9,30.06,ESE,119,6.0,7.0,-999,-99.99,,,-99.99,,2013-01-27 08:32:00,
2013-01-27 04:42:00,76.0,-99.9,30.06,ESE,116,5.0,7.0,-999,-99.99,,,-99.99,,2013-01-27 08:42:00,
2013-01-27 04:52:00,77.0,-99.9,30.05,ESE,117,5.0,9.0,-999,-99.99,,,-99.99,,2013-01-27 08:52:00,
2013-01-27 05:03:00,77.0,-99.9,30.06,ESE,116,5.0,8.0,-999,-99.99,,,-99.99,,2013-01-27 09:03:00,
2013-01-27 05:11:00,77.0,-99.9,30.06,SSE,165,5.0,6.0,-999,-99.99,,,-99.99,,2013-01-27 09:11:00,
2013-01-27 05:22:00,76.0,-99.9,30.06,South,188,4.0,6.0,-999,-99.99,,,-99.99,,2013-01-27 09:22:00,
2013-01-27 05:32:00,76.0,-99.9,30.06,SSE,167,5.0,6.0,-999,-99.99,,,-99.99,,2013-01-27 09:32:00,
2013-01-27 05:42:00,76.0,-99.9,30.06,SE,145,6.0,8.0,-999,-99.99,,,-99.99,,2013-01-27 09:42:00,
2013-01-27 05:52:00,76.0,-99.9,30.06,SSE,161,6.0,7.0,-999,-99.99,,,-99.99,,2013-01-27 09:52:00,
2013-01-27 06:01:00,76.0,-99.9,30.06,South,191,4.0,6.0,-999,-99.99,,,-99.99,,2013-01-27 10:01:00,
2013-01-27 06:11:00,75.0,-99.9,30.07,SW,218,4.0,5.0,-999,-99.99,,,-99.99,,2013-01-27 10:11:00,
2013-01-27 06:21:00,74.0,-99.9,30.07,WSW,250,4.0,5.0,-999,-99.99,,,-99.99,,2013-01-27 10:21:00,
2013-01-27 06:32:00,74.0,-99.9,30.07,WSW,243,6.0,6.0,-999,-99.99,,,-99.99,,2013-01-27 10:32:00,
2013-01-27 06:42:00,74.0,-99.9,30.07,WSW,241,4.0,6.0,-999,-99.99,,,-99.99,,2013-01-27 10:42:00,
2013-01-27 06:52:00,74.0,-99.9,30.08,SW,228,4.0,5.0,-999,-99.99,,,-99.99,,2013-01-27 10:52:00,
2013-01-27 07:01:00,74.0,-99.9,30.08,SSW,211,3.0,4.0,-999,-99.99,,,-99.99,,2013-01-27 11:01:00,
2013-01-27 07:11:00,74.0,-99.9,30.08,SSW,208,3.0,4.0,-999,-99.99,,,-99.99,,2013-01-27 11:11:00,
2013-01-27 07:22:00,74.0,-99.9,30.08,South,174,4.0,6.0,-999,-99.99,,,-99.99,,2013-01-27 11:22:00,
2013-01-27 07:32:00,75.0,-99.9,30.08,SSE,165,4.0,6.0,-999,-99.99,,,-99.99,,2013-01-27 11:32:00,
2013-01-27 07:42:00,75.0,-99.9,30.09,SE,137,6.0,8.0,-999,-99.99,,,-99.99,,2013-01-27 11:42:00,
2013-01-27 07:52:00,75.0,-99.9,30.09,SE,141,5.0,6.0,-999,-99.99,,,-99.99,,2013-01-27 11:52:00,
2013-01-27 08:03:00,75.0,-99.9,30.10,SSE,147,5.0,6.0,-999,-99.99,,,-99.99,,2013-01-27 12:03:00,
2013-01-27 08:12:00,76.0,-99.9,30.10,SSE,153,5.0,6.0,-999,-99.99,,,-99.99,,2013-01-27 12:12:00,
2013-01-27 08:22:00,76.0,-99.9,30.10,SSE,152,4.0,5.0,-999,-99.99,,,-99.99,,2013-01-27 12:22:00,
2013-01-27 08:33:00,76.0,-99.9,30.11,SSE,151,3.0,4.0,-999,-99.99,,,-99.99,,2013-01-27 12:33:00,
2013-01-27 08:42:00,77.0,-99.9,30.11,SE,145,3.0,4.0,-999,-99.99,,,-99.99,,2013-01-27 12:42:00,
2013-01-27 08:52:00,76.0,-99.9,30.11,SE,139,4.0,6.0,-999,-99.99,,,-99.99,,2013-01-27 12:52:00,
2013-01-27 09:02:00,76.0,-99.9,30.11,SE,124,5.0,6.0,-999,-99.99,,,-99.99,,2013-01-27 13:02:00,
2013-01-27 09:12:00,77.0,-99.9,30.12,SE,129,5.0,6.0,-999,-99.99,,,-99.99,,2013-01-27 13:12:00,
2013-01-27 09:22:00,77.0,-99.9,30.12,SE,125,5.0,7.0,-999,-99.99,,,-99.99,,2013-01-27 13:22:00,
2013-01-27 09:32:00,78.0,-99.9,30.12,SE,133,6.0,8.0,-999,-99.99,,,-99.99,,2013-01-27 13:32:00,
2013-01-27 09:42:00,78.0,-99.9,30.13,East,101,9.0,13.0,-999,-99.99,,,-99.99,,2013-01-27 13:42:00,
2013-01-27 09:52:00,78.0,-99.9,30.13,ESE,104,8.0,10.0,-999,-99.99,,,-99.99,,2013-01-27 13:52:00,
2013-01-27 10:02:00,78.0,-99.9,30.13,East,92,9.0,15.0,-999,-99.99,,,-99.99,,2013-01-27 14:02:00,
2013-01-27 10:12:00,78.0,-99.9,30.14,East,86,9.0,14.0,-999,-99.99,,,-99.99,,2013-01-27 14:12:00,
2013-01-27 10:22:00,79.0,-99.9,30.14,East,93,8.0,10.0,-999,-99.99,,,-99.99,,2013-01-27 14:22:00,
2013-01-27 10:33:00,79.0,-99.9,30.14,East,90,9.0,13.0,-999,-99.99,,,-99.99,,2013-01-27 14:33:00,
2013-01-27 10:43:00,79.0,-99.9,30.14,East,87,8.0,13.0,-999,-99.99,,,-99.99,,2013-01-27 14:43:00,
2013-01-27 10:53:00,79.0,-99.9,30.14,East,87,12.0,17.0,-999,-99.99,,,-99.99,,2013-01-27 14:53:00,
2013-01-27 11:02:00,80.0,-99.9,30.14,East,93,11.0,15.0,-999,-99.99,,,-99.99,,2013-01-27 15:02:00,
2013-01-27 11:12:00,79.0,-99.9,30.14,East,92,11.0,15.0,-999,-99.99,,,-99.99,,2013-01-27 15:12:00,
2013-01-27 11:22:00,80.0,-99.9,30.14,East,81,11.0,14.0,-999,-99.99,,,-99.99,,2013-01-27 15:22:00,
2013-01-27 11:33:00,80.0,-99.9,30.14,ENE,77,11.0,13.0,-999,-99.99,,,-99.99,,2013-01-27 15:33:00,
2013-01-27 11:42:00,80.0,-99.9,30.14,ENE,71,11.0,16.0,-999,-99.99,,,-99.99,,2013-01-27 15:42:00,
2013-01-27 11:53:00,79.0,-99.9,30.13,East,86,17.0,22.0,-999,-99.99,,,-99.99,,2013-01-27 15:53:00,
2013-01-27 12:03:00,77.0,-99.9,30.14,ENE,70,12.0,18.0,-999,-99.99,,,-99.99,,2013-01-27 16:03:00,
2013-01-27 12:12:00,79.0,-99.9,30.13,ENE,67,9.0,12.0,-999,-99.99,,,-99.99,,2013-01-27 16:12:00,
2013-01-27 12:22:00,79.0,-99.9,30.13,NE,46,6.0,9.0,-999,-99.99,,,-99.99,,2013-01-27 16:22:00,
2013-01-27 12:33:00,80.0,-99.9,30.13,NE,50,6.0,8.0,-999,-99.99,,,-99.99,,2013-01-27 16:33:00,
2013-01-27 12:42:00,80.0,-99.9,30.12,NNE,29,6.0,9.0,-999,-99.99,,,-99.99,,2013-01-27 16:42:00,
2013-01-27 12:53:00,80.0,-99.9,30.12,ENE,70,13.0,15.0,-999,-99.99,,,-99.99,,2013-01-27 16:53:00,
2013-01-27 13:02:00,80.0,-99.9,30.11,ENE,77,12.0,18.0,-999,-99.99,,,-99.99,,2013-01-27 17:02:00,
2013-01-27 13:12:00,80.0,-99.9,30.11,ENE,76,12.0,17.0,-999,-99.99,,,-99.99,,2013-01-27 17:12:00,
2013-01-27 13:22:00,80.0,-99.9,30.10,ENE,75,15.0,19.0,-999,-99.99,,,-99.99,,2013-01-27 17:22:00,
2013-01-27 13:33:00,80.0,-99.9,30.10,ENE,71,13.0,16.0,-999,-99.99,,,-99.99,,2013-01-27 17:33:00,
2013-01-27 13:42:00,80.0,-99.9,30.10,ENE,77,14.0,19.0,-999,-99.99,,,-99.99,,2013-01-27 17:42:00,
2013-01-27 13:53:00,80.0,-99.9,30.09,ENE,68,17.0,20.0,-999,-99.99,,,-99.99,,2013-01-27 17:53:00,
2013-01-27 14:03:00,80.0,-99.9,30.09,ENE,70,15.0,19.0,-999,-99.99,,,-99.99,,2013-01-27 18:03:00,
2013-01-27 14:12:00,80.0,-99.9,30.09,ENE,73,15.0,21.0,-999,-99.99,,,-99.99,,2013-01-27 18:12:00,
2013-01-27 14:23:00,80.0,-99.9,30.08,ENE,69,14.0,20.0,-999,-99.99,,,-99.99,,2013-01-27 18:23:00,
2013-01-27 14:32:00,80.0,-99.9,30.08,ENE,72,13.0,18.0,-999,-99.99,,,-99.99,,2013-01-27 18:32:00,
2013-01-27 14:42:00,80.0,-99.9,30.08,ENE,71,15.0,19.0,-999,-99.99,,,-99.99,,2013-01-27 18:42:00,
2013-01-27 14:53:00,80.0,-99.9,30.08,ENE,69,12.0,15.0,-999,-99.99,,,-99.99,,2013-01-27 18:53:00,
2013-01-27 15:02:00,80.0,-99.9,30.08,ENE,70,14.0,17.0,-999,-99.99,,,-99.99,,2013-01-27 19:02:00,
2013-01-27 15:12:00,80.0,-99.9,30.08,ENE,67,14.0,19.0,-999,-99.99,,,-99.99,,2013-01-27 19:12:00,
2013-01-27 15:22:00,80.0,-99.9,30.07,ENE,72,15.0,19.0,-999,-99.99,,,-99.99,,2013-01-27 19:22:00,
2013-01-27 15:33:00,80.0,-99.9,30.07,ENE,69,14.0,19.0,-999,-99.99,,,-99.99,,2013-01-27 19:33:00,
2013-01-27 15:42:00,80.0,-99.9,30.07,ENE,69,15.0,19.0,-999,-99.99,,,-99.99,,2013-01-27 19:42:00,
2013-01-27 15:52:00,80.0,-99.9,30.07,ENE,72,15.0,19.0,-999,-99.99,,,-99.99,,2013-01-27 19:52:00,
2013-01-27 16:03:00,80.0,-99.9,30.07,ENE,70,13.0,16.0,-999,-99.99,,,-99.99,,2013-01-27 20:03:00,
2013-01-27 16:12:00,80.0,-99.9,30.07,ENE,61,13.0,18.0,-999,-99.99,,,-99.99,,2013-01-27 20:12:00,
2013-01-27 16:22:00,80.0,-99.9,30.07,ENE,74,16.0,20.0,-999,-99.99,,,-99.99,,2013-01-27 20:22:00,
2013-01-27 16:33:00,80.0,-99.9,30.07,ENE,68,15.0,19.0,-999,-99.99,,,-99.99,,2013-01-27 20:33:00,
2013-01-27 16:42:00,80.0,-99.9,30.07,ENE,69,12.0,17.0,-999,-99.99,,,-99.99,,2013-01-27 20:42:00,
2013-01-27 16:52:00,80.0,-99.9,30.07,ENE,75,15.0,19.0,-999,-99.99,,,-99.99,,2013-01-27 20:52:00,
2013-01-27 17:02:00,80.0,-99.9,30.07,ENE,73,15.0,19.0,-999,-99.99,,,-99.99,,2013-01-27 21:02:00,
2013-01-27 17:12:00,80.0,-99.9,30.08,ENE,70,17.0,20.0,-999,-99.99,,,-99.99,,2013-01-27 21:12:00,
2013-01-27 17:23:00,80.0,-99.9,30.08,ENE,72,15.0,21.0,-999,-99.99,,,-99.99,,2013-01-27 21:23:00,
2013-01-27 17:33:00,80.0,-99.9,30.08,ENE,73,12.0,19.0,-999,-99.99,,,-99.99,,2013-01-27 21:33:00,
2013-01-27 17:43:00,80.0,-99.9,30.09,ENE,71,13.0,20.0,-999,-99.99,,,-99.99,,2013-01-27 21:43:00,
2013-01-27 17:52:00,80.0,-99.9,30.09,ENE,74,13.0,18.0,-999,-99.99,,,-99.99,,2013-01-27 21:52:00,
2013-01-27 18:03:00,80.0,-99.9,30.09,ENE,74,10.0,17.0,-999,-99.99,,,-99.99,,2013-01-27 22:03:00,
2013-01-27 18:12:00,80.0,-99.9,30.10,ENE,70,12.0,15.0,-999,-99.99,,,-99.99,,2013-01-27 22:12:00,
2013-01-27 18:22:00,80.0,-99.9,30.10,ENE,74,12.0,16.0,-999,-99.99,,,-99.99,,2013-01-27 22:22:00,
2013-01-27 18:33:00,80.0,-99.9,30.10,ENE,70,11.0,16.0,-999,-99.99,,,-99.99,,2013-01-27 22:33:00,
2013-01-27 18:42:00,80.0,-99.9,30.10,ENE,71,14.0,17.0,-999,-99.99,,,-99.99,,2013-01-27 22:42:00,
2013-01-27 18:52:00,79.0,-99.9,30.10,ENE,67,12.0,17.0,-999,-99.99,,,-99.99,,2013-01-27 22:52:00,
2013-01-27 19:02:00,79.0,-99.9,30.10,ENE,70,13.0,16.0,-999,-99.99,,,-99.99,,2013-01-27 23:02:00,
2013-01-27 19:12:00,79.0,-99.9,30.11,ENE,74,12.0,15.0,-999,-99.99,,,-99.99,,2013-01-27 23:12:00,
2013-01-27 19:22:00,79.0,-99.9,30.11,ENE,71,13.0,16.0,-999,-99.99,,,-99.99,,2013-01-27 23:22:00,
2013-01-27 19:32:00,79.0,-99.9,30.11,ENE,68,13.0,17.0,-999,-99.99,,,-99.99,,2013-01-27 23:32:00,
2013-01-27 19:42:00,80.0,-99.9,30.12,ENE,71,11.0,15.0,-999,-99.99,,,-99.99,,2013-01-27 23:42:00,
2013-01-27 19:53:00,79.0,-99.9,30.12,ENE,72,14.0,17.0,-999,-99.99,,,-99.99,,2013-01-27 23:53:00,
2013-01-27 20:02:00,79.0,-99.9,30.12,East,81,11.0,15.0,-999,-99.99,,,-99.99,,2013-01-28 00:02:00,
2013-01-27 20:12:00,79.0,-99.9,30.12,East,80,10.0,14.0,-999,-99.99,,,-99.99,,2013-01-28 00:12:00,
2013-01-27 20:22:00,79.0,-99.9,30.13,East,96,13.0,15.0,-999,-99.99,,,-99.99,,2013-01-28 00:22:00,
2013-01-27 20:33:00,79.0,-99.9,30.13,ENE,76,10.0,13.0,-999,-99.99,,,-99.99,,2013-01-28 00:33:00,
2013-01-27 20:42:00,79.0,-99.9,30.13,ENE,73,11.0,15.0,-999,-99.99,,,-99.99,,2013-01-28 00:42:00,
2013-01-27 20:52:00,79.0,-99.9,30.14,East,85,11.0,15.0,-999,-99.99,,,-99.99,,2013-01-28 00:52:00,
2013-01-27 21:02:00,79.0,-99.9,30.14,East,93,11.0,14.0,-999,-99.99,,,-99.99,,2013-01-28 01:02:00,
2013-01-27 21:12:00,79.0,-99.9,30.14,East,83,11.0,14.0,-999,-99.99,,,-99.99,,2013-01-28 01:12:00,
2013-01-27 21:22:00,79.0,-99.9,30.14,East,79,9.0,13.0,-999,-99.99,,,-99.99,,2013-01-28 01:22:00,
2013-01-27 21:33:00,79.0,-99.9,30.14,ENE,67,10.0,12.0,-999,-99.99,,,-99.99,,2013-01-28 01:33:00,
2013-01-27 21:42:00,79.0,-99.9,30.14,ENE,71,10.0,14.0,-999,-99.99,,,-99.99,,2013-01-28 01:42:00,
2013-01-27 21:52:00,79.0,-99.9,30.14,East,92,14.0,17.0,-999,-99.99,,,-99.99,,2013-01-28 01:52:00,
2013-01-27 22:02:00,79.0,-99.9,30.15,ENE,76,11.0,17.0,-999,-99.99,,,-99.99,,2013-01-28 02:02:00,
2013-01-27 22:12:00,79.0,-99.9,30.15,East,86,12.0,15.0,-999,-99.99,,,-99.99,,2013-01-28 02:12:00,
2013-01-27 22:22:00,79.0,-99.9,30.15,East,85,12.0,15.0,-999,-99.99,,,-99.99,,2013-01-28 02:22:00,
2013-01-27 22:32:00,79.0,-99.9,30.15,ENE,75,12.0,19.0,-999,-99.99,,,-99.99,,2013-01-28 02:32:00,
2013-01-27 22:42:00,79.0,-99.9,30.15,ENE,68,13.0,17.0,-999,-99.99,,,-99.99,,2013-01-28 02:42:00,
2013-01-27 22:53:00,79.0,-99.9,30.15,East,87,12.0,16.0,-999,-99.99,,,-99.99,,2013-01-28 02:53:00,
2013-01-27 23:02:00,79.0,-99.9,30.14,ENE,74,10.0,15.0,-999,-99.99,,,-99.99,,2013-01-28 03:02:00,
2013-01-27 23:12:00,79.0,-99.9,30.14,East,81,14.0,17.0,-999,-99.99,,,-99.99,,2013-01-28 03:12:00,
2013-01-27 23:22:00,79.0,-99.9,30.14,ENE,77,11.0,14.0,-999,-99.99,,,-99.99,,2013-01-28 03:22:00,
2013-01-27 23:32:00,79.0,-99.9,30.14,ENE,73,12.0,18.0,-999,-99.99,,,-99.99,,2013-01-28 03:32:00,
2013-01-27 23:42:00,79.0,-99.9,30.14,ENE,77,12.0,16.0,-999,-99.99,,,-99.99,,2013-01-28 03:42:00,
2013-01-27 23:53:00,77.0,-99.9,30.14,ENE,77,12.0,19.0,-999,-99.99,,,-99.99,,2013-01-28 03:53:00,